Find Starlink 31994

NORAD ID: 60588 Int'l Des: 2024-150 Owner: SPXS Country: US Constellation: starlink operational
LEOCIRCULAR

Live-Position

3D-Globus wird geladen...

Über Starlink 31994

Beschreibung wird geladen...

Nächste Überflüge

Passes for default location (London). Set your location on the main map for personalized predictions.

Höhenverlauf

Loading altitude history...

Zweizeiliger Elementsatz

1 60588U 24150F 26130.16935852 -.00001370 00000-0 -29445-4 0 9991
2 60588 53.1617 20.7888 0001013 83.0399 277.0719 15.34376608 97385
Epoch: 10. Mai 2026 • Age: 18 hours

Aktueller Status

Höhe 472.6 km
Geschwindigkeit 7.63 km/s
Subsatellitenpunkt -30.47°S, 21.36°E
Startdatum 20. Aug. 2024
Alter 1.7 years
Typ internet

Technische Details

Klassifizierung Payload
Masse 730.00 kg
Trockenmasse 700.00 kg
Gesamtmasse 730.00 kg
Länge 0.30 m
Durchmesser 4.10 m
Spannweite 29.00 m
Form Box + pan
Hersteller SPXS
Bus-Typ Starlink V2M
Phasenstatus In Orbit
Besitzer/Staat SPXS/US

Most Searched